| time (UTC) | temp F | wind direction | speed knots | gust knots | rain 1hr in | rain 24hr in | rain mn in | humidity % | barometer mb |
| 20260505153022 | 79 | 13 | 0.0 | 3.5 | 0.00 | 0.00 | 0.00 | 48 | 1010.5 |
| 20260505151518 | 78 | 42 | 0.0 | 3.5 | 0.00 | 0.00 | 0.00 | 48 | 1010.5 |
| 20260505140124 | 72 | 209 | 0.0 | 0.0 | 0.00 | 0.00 | 0.00 | 54 | 1011.2 |
| 20260505124545 | 63 | 46 | 0.0 | 0.0 | 0.00 | 0.00 | 0.00 | 71 | 1011.2 |
| 20260505123035 | 60 | 24 | 0.0 | 0.0 | 0.00 | 0.00 | 0.00 | 78 | 1011.0 |
| 20260505121534 | 57 | 360 | 0.0 | 2.6 | 0.00 | 0.00 | 0.00 | 87 | 1011.2 |
| 20260505120026 | 54 | 360 | 0.0 | 0.0 | 0.00 | 0.00 | 0.00 | 88 | 1011.1 |
| 20260505114523 | 51 | 360 | 0.0 | 0.0 | 0.00 | 0.00 | 0.00 | 87 | 1011.1 |
| 20260505113018 | 49 | 360 | 0.0 | 0.0 | 0.00 | 0.00 | 0.00 | 86 | 1011.0 |
| 20260505111516 | 48 | 360 | 0.0 | 0.0 | 0.00 | 0.00 | 0.00 | 86 | 1011.0 |
| 20260505101518 | 47 | 5 | 0.0 | 0.0 | 0.00 | 0.00 | 0.00 | 85 | 1011.2 |
| 20260505100012 | 47 | 5 | 0.0 | 0.0 | 0.00 | 0.00 | 0.00 | 85 | 1010.7 |
| 20260505094517 | 48 | 5 | 0.0 | 0.0 | 0.00 | 0.00 | 0.00 | 85 | 1010.5 |
| 20260505093008 | 48 | 5 | 0.0 | 0.0 | 0.00 | 0.00 | 0.00 | 85 | 1010.4 |
| 20260505091506 | 48 | 5 | 0.0 | 0.0 | 0.00 | 0.00 | 0.00 | 85 | 1010.3 |
| 20260505090004 | 48 | 5 | 0.0 | 0.0 | 0.00 | 0.00 | 0.00 | 85 | 1010.3 |
| 20260505084503 | 48 | 5 | 0.0 | 0.0 | 0.00 | 0.00 | 0.00 | 85 | 1010.3 |
| 20260505083005 | 48 | 5 | 0.0 | 0.0 | 0.00 | 0.00 | 0.00 | 85 | 1010.2 |
| 20260505081501 | 48 | 5 | 0.0 | 0.0 | 0.00 | 0.00 | 0.00 | 84 | 1010.4 |
| 20260505080108 | 47 | 5 | 0.0 | 0.0 | 0.00 | 0.00 | 0.00 | 84 | 1010.5 |
| 20260505074600 | 47 | 5 | 0.0 | 0.0 | 0.00 | 0.00 | 0.00 | 84 | 1010.2 |
| 20260505073104 | 48 | 5 | 0.0 | 0.0 | 0.00 | 0.00 | 0.00 | 83 | 1010.0 |
| 20260505071556 | 48 | 5 | 0.0 | 0.0 | 0.00 | 0.00 | 0.00 | 83 | 1010.1 |
| 20260505070057 | 48 | 5 | 0.0 | 0.0 | 0.00 | 0.00 | 0.00 | 83 | 1010.2 |
| 20260505064554 | 48 | 5 | 0.0 | 0.0 | 0.00 | 0.00 | 0.00 | 83 | 1010.0 |
| 20260505063112 | 49 | 5 | 0.0 | 0.0 | 0.00 | 0.00 | 0.00 | 83 | 1010.1 |
| 20260505061556 | 49 | 5 | 0.0 | 0.0 | 0.00 | 0.00 | 0.00 | 83 | 1010.1 |
| 20260505060054 | 49 | 5 | 0.0 | 0.0 | 0.00 | 0.00 | 0.00 | 83 | 1010.1 |
| 20260505054558 | 49 | 5 | 0.0 | 0.0 | 0.00 | 0.00 | 0.00 | 82 | 1010.2 |
| 20260505053056 | 49 | 5 | 0.0 | 0.0 | 0.00 | 0.00 | 0.00 | 82 | 1010.4 |
| 20260505051547 | 49 | 5 | 0.0 | 0.9 | 0.00 | 0.00 | 0.00 | 82 | 1010.4 |
| 20260505041552 | 49 | 5 | 0.0 | 0.9 | 0.00 | 0.00 | 0.00 | 81 | 1010.5 |
| 20260505040049 | 49 | 5 | 0.0 | 1.7 | 0.00 | 0.00 | 0.00 | 80 | 1010.5 |
| 20260505034539 | 49 | 5 | 0.0 | 0.0 | 0.00 | 0.00 | 0.00 | 79 | 1010.4 |
| 20260505033041 | 50 | 5 | 0.0 | 0.0 | 0.00 | 0.00 | 0.00 | 78 | 1010.5 |
| 20260505031543 | 50 | 5 | 0.0 | 0.0 | 0.00 | 0.00 | 0.00 | 77 | 1010.6 |
| 20260505030038 | 50 | 5 | 0.0 | 0.0 | 0.00 | 0.00 | 0.00 | 75 | 1010.7 |
| 20260505024552 | 51 | 5 | 0.0 | 0.0 | 0.00 | 0.00 | 0.00 | 74 | 1010.8 |
| 20260505023039 | 52 | 5 | 0.0 | 0.0 | 0.00 | 0.00 | 0.00 | 72 | 1010.8 |
| 20260505021538 | 52 | 5 | 0.0 | 0.0 | 0.00 | 0.00 | 0.00 | 70 | 1010.9 |
| 20260505020036 | 53 | 5 | 0.0 | 0.0 | 0.00 | 0.00 | 0.00 | 66 | 1010.8 |
| 20260505014553 | 54 | 5 | 0.0 | 0.0 | 0.00 | 0.00 | 0.00 | 63 | 1010.7 |
| 20260505013036 | 56 | 5 | 0.0 | 0.0 | 0.00 | 0.00 | 0.00 | 60 | 1010.7 |
| 20260505011535 | 57 | 5 | 0.0 | 0.0 | 0.00 | 0.00 | 0.00 | 57 | 1010.4 |
| 20260505010034 | 59 | 5 | 0.0 | 0.0 | 0.00 | 0.00 | 0.00 | 55 | 1010.2 |
| 20260505004539 | 60 | 5 | 0.0 | 0.0 | 0.00 | 0.00 | 0.00 | 53 | 1010.1 |
| 20260505003035 | 62 | 5 | 0.0 | 0.0 | 0.00 | 0.00 | 0.00 | 50 | 1010.0 |
| 20260505001533 | 63 | 5 | 0.0 | 0.9 | 0.00 | 0.00 | 0.00 | 49 | 1009.8 |
| 20260505000045 | 65 | 5 | 0.0 | 0.9 | 0.00 | 0.00 | 0.00 | 44 | 1009.8 |
| 20260504234535 | 66 | 5 | 0.0 | 1.7 | 0.00 | 0.00 | 0.00 | 42 | 1009.6 |
| 20260504233043 | 67 | 360 | 0.0 | 3.5 | 0.00 | 0.00 | 0.00 | 40 | 1009.4 |
| 20260504231532 | 68 | 15 | 0.0 | 3.5 | 0.00 | 0.00 | 0.00 | 39 | 1009.3 |
| 20260504230034 | 69 | 17 | 0.0 | 0.0 | 0.00 | 0.00 | 0.00 | 40 | 1009.2 |
| 20260504224534 | 69 | 24 | 0.0 | 0.0 | 0.00 | 0.00 | 0.00 | 37 | 1009.1 |
| 20260504223049 | 70 | 5 | 0.0 | 0.0 | 0.00 | 0.00 | 0.00 | 35 | 1009.2 |
| 20260504221531 | 71 | 5 | 0.0 | 0.0 | 0.00 | 0.00 | 0.00 | 34 | 1009.2 |
| 20260504220028 | 72 | 302 | 0.0 | 0.0 | 0.00 | 0.00 | 0.00 | 32 | 1009.3 |
| 20260504214529 | 73 | 233 | 0.0 | 0.0 | 0.00 | 0.00 | 0.00 | 33 | 1009.5 |
| 20260504213039 | 73 | 5 | 0.0 | 0.0 | 0.00 | 0.00 | 0.00 | 32 | 1009.5 |
| 20260504211532 | 74 | 59 | 0.0 | 0.0 | 0.00 | 0.00 | 0.00 | 33 | 1009.6 |
| 20260504210025 | 73 | 194 | 0.0 | 0.0 | 0.00 | 0.00 | 0.00 | 33 | 1009.7 |
| 20260504204535 | 73 | 294 | 0.0 | 0.0 | 0.00 | 0.00 | 0.00 | 33 | 1009.5 |
| 20260504203024 | 73 | 32 | 0.0 | 0.0 | 0.00 | 0.00 | 0.00 | 32 | 1009.6 |
| 20260504201519 | 73 | 360 | 0.0 | 0.0 | 0.00 | 0.00 | 0.00 | 29 | 1009.6 |
| 20260504200018 | 74 | 5 | 0.0 | 0.0 | 0.00 | 0.00 | 0.00 | 29 | 1009.6 |
| 20260504194516 | 74 | 36 | 0.0 | 0.0 | 0.00 | 0.00 | 0.00 | 31 | 1009.8 |
| 20260504193016 | 74 | 346 | 0.0 | 0.0 | 0.00 | 0.00 | 0.00 | 32 | 1009.9 |
| 20260504191513 | 74 | 248 | 0.0 | 0.0 | 0.00 | 0.00 | 0.00 | 30 | 1010.1 |
| 20260504190010 | 74 | 360 | 0.0 | 3.5 | 0.00 | 0.00 | 0.00 | 32 | 1010.4 |
| 20260504184508 | 74 | 247 | 1.7 | 5.2 | 0.00 | 0.00 | 0.00 | 32 | 1010.6 |
| 20260504183008 | 74 | 320 | 0.0 | 0.0 | 0.00 | 0.00 | 0.00 | 32 | 1010.7 |
| 20260504181506 | 74 | 213 | 0.0 | 0.0 | 0.00 | 0.00 | 0.00 | 35 | 1010.9 |
| 20260504180001 | 73 | 77 | 0.0 | 0.0 | 0.00 | 0.00 | 0.00 | 38 | 1011.1 |
| 20260504174618 | 72 | 265 | 0.0 | 0.0 | 0.00 | 0.00 | 0.00 | 33 | 1011.2 |
| 20260504173101 | 72 | 238 | 0.0 | 0.0 | 0.00 | 0.00 | 0.00 | 35 | 1011.3 |
| 20260504171554 | 71 | 196 | 0.0 | 0.0 | 0.00 | 0.00 | 0.00 | 40 | 1011.4 |